Погода в Вильнюсе

Погода в Вильнюсе : погода сейчас, прогноз погоды и архив. Всё, что Вы хотите узнать о погоде в Вильнюсе!

Поиск расширенной информации на нашем сайте:

Другие новости

Новости СМИ2

Главная страница сайта

Новости сайта

03.07.2017

Напоминаем, что на нашем специализированном сайте Метеоцентр.Азия вы можете получить высокодетализированные автоматические прогнозы погоды по пунктам России, СНГ и мира в авиационном формате (включающие направление и скорость ветра, видимость, явления погоды, количество и форму облачности, нижнюю и верхнюю границу облачности).


Погода в Вильнюсе - сегодня

Время (UTC), дата Ветер
(°,м/с) 
Видим.   Явления Облачность Т
(°С)
Тd
(°С)
f(%) Тe
(°С)
Pmin
(гПа)
dP
(гПа)
Po
(мм)
O2
(г/м3)
Тmin Tmax R s Состояние
почвы
18 24.07.17 050 (СВ) 2-3{05}  20000 м    3/3 1000 м 
[Cu Sc]
+19.2 +17 87 +33  1008.1  -0.4  742  276    +21.3  0.4     
21 24.07.17 070 (В) 1-3{03}  11000 м    6/6 1000 м 
[Sc diur, vesp]
+17.1 +15.9 93 +30  1008.4  0.2  743  278           
00 25.07.17 120 (ЮВ) 1-3{04}  0300 м  туман  ?/?  
+15.8 +15.1 96 +26  1007.8  -0.7  742  279           
03 25.07.17 060 (СВ) 2-4{04}  0700 м  туман  ?/?  
+15.1 +14.6 97 +24  1006.8  -1  741  280           
06 25.07.17 060 (СВ) 2-4{05}  9000 м  дымка{туман}  10/10 100 м 
[St]
+15.9 +15.2 96 +26  1006.4  -0.4  741  279  +15        влажная 
09 25.07.17 060 (СВ) 3-6{06}  20000 м    10/10 240 м 
[St]
+17.1 +15.1 88 +27  1005.8  -0.5  741  278           
12 25.07.17 060 (СВ) 3-5{06}  20000 м    9/9 480 м 
[St]
+19.2 +15.5 79 +30  1004.4  -1.2  740  275           
15 25.07.17 050 (СВ) 3-5{08}  20000 м  в посл. час дождь  6/6 500 м 
[Cu Sc]
+19.5 +16 80 +31  1003  -1.4  739  274           
18 25.07.17 050 (СВ) 3-6{08}  19000 м  морось{ливн. осадки, дождь}  10/10 180 м 
[Ns]
+18.4 +17.4 94 +33  1001.8  -1.2  738  275    +20     
21 25.07.17 060 (СВ) 1-3{07}  10 км  {морось}  6/6 120 м 
[St]
+18 +17 94 +32  1000.7  -1.1  737  275           
00 26.07.17 060 (СВ) 2-3{04}  20000 м  {морось}  8/0 верхняя 
[Cs]
+17.1 +16.1 94 +29  999.5  -1.3  736  276      0.0     
03 26.07.17 100 (В) 2-3{03}  14000 м    9/9 1500 м 
[Sc]
+17 +16.2 95 +29  999.4  -0.1  736  276           
06 26.07.17 120 (ЮВ) 1-3{03}  20000 м    9/5 600 м средняя 
[Cu Sc|Ac As]
+18.4 +17.3 93 +34  998.8  -0.5  736  274  +16.9    0.0    влажная 
09 26.07.17 090 (В) 2-5{05}  20000 м    10/10 660 м 
[Cu Sc]
+20.3 +17.7 85 +35  998  -0.6  735  272           
12 26.07.17 080 (В) 2-4{05}  19000 м    9/9 1080 м 
[Cu Sc]
+22.1 +17.9 77 +37  997.5  -0.4  735  270           
15 26.07.17 210 (ЮЗ) 4-7{10}  9000 м  гроза, ливневой дождь  10/10 480 м кучево-дожд. 
[Cb cap]
+17.1 +16.3 95 +29  999.1  1.2  736  275           
18 26.07.17 230 (ЮЗ) 4-8{11}  20000 м  {гроза, ливн. осадки}  10/10 330 м 
[St]
+16.3 +15 92 +25  1002.1  2.9  738  277    +22.7  20     
21 26.07.17 180 (Ю) 2-3{08}  6000 м  дымка  ясно 
+14.2 +13.4 95 +21  1003.5  1.3  739  280           
00 27.07.17 190 (Ю) 3-3{04}  11000 м    ясно 
+13.2 +12.3 94 +18  1004.5  0.9  740  282           
03 27.07.17 150 (ЮВ) 2-3{03}  9000 м  дымка  1/0 верхняя 
[Ci fib]
+11.8 +11.2 96 +15  1005.3  0.7  740  284           
06 27.07.17 200 (Ю) 3-4{05}  20000 м    ясно 
+16.3 +13.6 84 +24  1005.9  0.9  741  279  +11.6        мокрая 
09 27.07.17 200 (Ю) 4-7{08}  20000 м    4/4 1000 м 
[Cu hum]
+21 +12.9 60 +27  1006  0.4  741  275           
12 27.07.17 190 (Ю) 4-8{09}  20000 м    6/5 1500 м верхняя 
[Cu med, cong|Ci fib]
+22.8 +11.9 50 +27  1005.7  -0.2  741  273           
15 27.07.17 200 (Ю) 3-6{09}  20000 м    8/8 2000 м 
[Cu med, cong]
+23.6 +12.2 49 +28  1005.6  -0.1  741  272           
18 27.07.17 180 (Ю) 2-3{08}  20000 м    8/0 средняя 
[Ac trans]
+21.7 +13 58 +27  1006  0.3  741  274    +24.4       
Время (UTC), дата Ветер
(°,м/с) 
Видим.   Явления Облачность Т
(°С)
Тd
(°С)
f(%) Тe
(°С)
Pmin
(гПа)
dP
(гПа)
Po
(мм)
O2
(г/м3)
Тmin Tmax R s Состояние
почвы

Для получения пояснительной информации подведите курсор к названию столбца.

ПОГОДА в Вильнюсе - архив

Всё, что Вы хотите узнать о погоде в Вильнюсе - удобно и подробно!

Выберите нужную дату (начиная с 1 января 2015* года) и нажмите кнопку "Найти".
Будут отображены архивные сводки погоды по пункту Вильнюс, начиная с указанной даты.


Отображать данные в формате CSV (для использования в таблицах Excel)


Внимание! Наш архив погоды предназначен исключительно для личного некоммерческого использования в познавательных целях. Если Вам необходимы официальные справки о состоянии погоды (для производственных, юридических, коммерческих и т.п. целей), обращайтесь в органы Росгидромета.

*Примечание: данная дата относится к архиву по метеостанциям СССР (Россия, СНГ, Балтия).
Архив по метеостанциям Зарубежной Европы и Азии (кроме Китая) хранится 10 дней, по другим регионам земного шара (Китай, Африка, Америка, Австралия, Океания) - 1 день.

Вильнюс - район местоположения метеостанции


Название, широта, долгота, высота метеостанции:
Вильнюс 54.6°ш. 25.1°д. 156 м над ур. моря [Литва]

Дополнительная информация

В oтличие oт бoльшинства пoгoдных сайтoв мы публикуем пoдрoбную метеoинфoрмацию в детальнoм прoфессиoнальнoм фoрмате.

Характеристики температуры и влажнoсти вoздуха измеряются на высoте 2 м в тени вдали oт зданий и деревьев.
Скoрoсть ветра измеряется на высoте 10 м (на урoвне рoста челoвека скoрoсть ветра ниже в 1.5-2 раза). Если метеoстанция нахoдится в гoрoде или в лесу, тo скoрoсть ветра занижена на 2-4 м/с пo сравнению с oткрытым местoм. Скoрoсть ветра над акватoриями крупных рек и oзёр, а также на вершинах хoлмoв на 2-5 м/с выше, чем в oбычных услoвиях.
Атмoсфернoе давление в разных тoчках местнoсти мoжет значительнo oтличаться oт давления на метеoстанции, в зависимoсти oт услoвий рельефа (при пoдъёме на 10 м давление пoнижается примернo на 1 мм рт.ст.).